Location: Newark
(46.7000°N, 60.6000°W)
Time: 13:02:52
(UTC+00:00)

A-11 Canister half - Pass Details

Date: 02 November 2020
Orbit: 1525 x 1684 km, 47.3° (Epoch: 01 December)

Event Time Altitude Azimuth Distance (km) Brightness Sun altitude
Rises 18:24:58 0° 250° (WSW) 4,806 12.7 18.7°
Reaches altitude 10° 18:28:05 10° 250° (WSW) 3,800 12.3 18.3°
Maximum altitude 18:37:44 84° 164° (SSE) 1,568 9.5 17.2°
Drops below altitude 10° 18:47:06 10° 78° (ENE) 3,705 10.6 16.1°
Sets 18:50:07 0° 78° (ENE) 4,681 11.0 15.7°
